Theta_e
319 319 317 317 317 317 315 316 316 315 314 315 314 314 313 312 312 313 310 309 309 312 309 310 309 309 309 311 309 309 308 309 309 311 312 313 314 314 317 320 324 329 330 331 331 332 333 332 331 331 331 331 330 330 328 327 326 325 324 325 325 324 324 324 325 324 324 323 322 322 322 322 322 322 323 322 322 321 321 321 321 321 320 320 320
319 318 318 318 316 316 315 317 316 315 314 317 315 314 314 312 312 312 313 312 310 313 310 311 312 309 308 311 310 312 311 309 310 310 313 314 314 314 316 318 321 326 329 330 332 332 333 333 332 332 332 331 331 330 330 329 328 326 326 326 327 326 325 327 326 324 324 324 323 323 322 322 322 323 322 322 322 321 322 321 321 321 321 321 321
320 319 317 317 317 317 317 315 314 314 316 317 314 316 314 314 314 313 313 313 313 311 310 312 311 312 311 310 313 311 312 311 310 311 311 313 314 314 315 316 319 322 326 330 331 331 332 332 333 333 333 332 332 331 331 331 331 330 329 329 329 329 329 328 326 327 325 324 324 324 323 323 322 323 323 323 322 322 322 322 322 322 321 321 321
320 319 319 317 316 317 317 315 317 315 316 316 315 315 315 314 312 312 311 311 312 311 309 310 311 311 310 312 313 313 313 312 312 312 311 311 312 313 314 315 316 319 321 325 329 331 332 332 332 332 332 333 334 332 332 334 333 330 332 332 331 330 329 329 327 327 327 326 325 325 324 324 323 323 323 323 323 323 322 322 322 322 322 322 322
319 319 318 317 316 316 315 317 318 317 316 315 314 312 312 311 313 309 310 310 313 315 313 310 310 312 310 311 310 312 313 313 313 313 312 312 311 311 313 314 314 315 316 319 323 326 330 332 331 331 332 332 333 334 333 332 332 334 331 334 332 334 334 331 329 328 329 328 327 326 326 325 324 324 323 323 323 323 323 323 322 323 322 323 322
319 317 318 317 317 316 316 316 316 316 315 316 317 316 316 313 314 310 313 314 316 317 314 314 312 307 307 309 308 311 311 311 312 312 312 313 313 312 312 312 313 314 314 316 318 321 324 328 330 331 331 331 331 333 333 333 333 333 334 333 334 332 332 332 331 330 331 328 327 327 327 326 325 325 324 324 324 323 323 323 323 322 323 323 323
320 319 318 318 317 316 316 318 319 318 317 318 320 318 318 318 317 316 317 316 315 315 314 314 313 313 313 311 311 312 311 311 311 310 310 312 312 312 312 312 312 312 313 314 312 314 319 322 326 329 330 332 331 332 332 332 333 333 334 335 335 334 334 332 331 329 331 331 329 328 327 327 326 326 326 325 325 324 324 324 323 323 323 323 323
320 319 319 318 318 318 318 318 318 320 320 319 318 318 318 317 317 317 316 315 314 314 311 312 313 314 314 314 313 311 311 310 310 310 311 311 311 311 311 311 311 312 311 312 312 312 314 317 321 323 325 327 329 330 332 333 333 333 333 334 334 335 332 334 334 332 329 330 331 330 328 327 328 326 326 326 326 325 325 324 324 324 324 324 324
322 322 323 321 320 320 318 318 320 321 321 320 319 319 319 318 315 313 314 315 310 310 311 311 311 313 314 313 312 310 309 310 310 310 310 309 311 311 311 311 311 309 308 309 310 311 311 313 316 318 318 320 324 326 328 330 330 331 332 333 333 334 333 333 331 331 332 329 327 330 329 328 328 328 326 326 326 326 325 325 325 324 324 325 324
324 325 325 324 323 322 321 321 320 321 321 321 320 318 317 317 317 313 312 309 309 311 312 312 309 312 313 312 310 306 308 308 308 307 308 310 311 312 313 313 311 309 308 308 308 308 308 310 312 313 312 314 319 322 324 326 327 328 329 330 331 332 331 331 330 330 329 329 329 329 328 329 329 328 327 327 327 327 326 326 326 325 325 325 325
326 327 326 326 324 323 323 320 319 318 318 318 319 317 314 313 315 317 310 311 311 312 312 312 313 312 311 311 309 308 308 307 306 307 308 309 309 310 308 309 307 307 307 307 306 307 308 308 309 310 310 311 315 318 320 323 323 325 327 328 328 329 330 329 329 329 329 328 329 328 328 329 329 331 328 326 327 328 327 327 326 326 325 325 325
328 328 327 326 325 325 324 323 320 318 316 316 316 317 316 315 316 316 314 311 309 310 311 312 312 312 310 311 310 309 309 307 306 307 308 307 306 305 306 305 303 305 305 306 305 306 307 308 306 307 307 308 311 313 315 316 317 320 323 325 327 328 327 327 328 328 327 328 329 329 329 328 328 328 328 328 328 330 329 328 327 327 327 325 325
328 328 328 325 326 326 325 323 322 320 318 317 316 317 316 313 313 311 314 313 312 311 313 312 311 311 311 309 310 308 307 307 308 308 307 306 303 303 303 303 304 303 305 305 305 305 305 305 305 304 305 305 306 308 310 312 313 317 320 322 324 326 327 327 327 327 327 327 327 327 327 327 328 327 328 328 327 328 329 329 327 327 329 327 328
326 329 328 328 327 326 325 324 322 321 320 320 320 316 317 315 314 313 310 313 313 313 313 312 308 309 309 309 309 310 308 305 306 304 304 304 304 303 303 303 304 303 303 302 302 301 302 302 302 303 303 303 304 305 305 306 308 312 317 320 322 324 325 325 325 325 325 325 326 326 325 326 326 327 328 328 328 328 328 329 328 330 330 328 329
326 326 328 328 327 327 326 326 325 323 322 320 316 316 316 316 314 315 311 308 311 313 312 314 312 305 306 306 305 303 304 302 295 297 299 302 300 300 301 300 302 301 301 299 300 301 301 301 301 301 302 302 302 303 304 303 304 306 312 314 315 320 322 323 324 325 324 324 325 325 324 324 325 326 326 327 327 328 328 328 327 327 329 327 330
325 326 327 328 327 326 325 324 325 323 323 322 319 319 319 317 317 315 315 313 310 310 310 311 312 310 308 305 303 301 302 299 292 301 301 302 299 301 299 301 300 300 297 299 300 300 301 300 300 300 300 301 301 302 302 303 304 304 304 305 307 312 317 321 323 324 324 324 323 324 324 324 324 325 325 326 327 327 327 328 328 327 326 329 326
325 327 325 328 328 327 325 324 323 323 323 322 322 321 320 320 319 317 316 317 314 309 306 309 311 314 312 305 303 299 300 300 301 308 301 304 301 300 299 299 300 300 297 300 300 300 301 300 300 300 300 300 301 301 302 302 302 302 303 300 302 307 312 317 320 322 324 325 325 323 324 323 323 324 325 325 326 326 327 327 326 327 327 327 325
323 325 326 325 326 326 325 325 324 323 322 323 322 320 320 320 319 319 317 317 317 312 311 308 310 310 312 313 310 307 306 304 306 303 306 305 304 302 300 299 299 299 300 299 300 302 301 301 300 300 301 301 301 301 301 301 301 302 302 304 308 311 312 314 318 321 323 324 324 324 324 323 323 323 324 324 325 325 325 325 326 325 325 325 326
321 323 324 325 326 324 325 324 324 324 321 321 320 319 319 319 317 316 316 314 313 312 312 312 307 308 308 310 308 306 307 305 302 302 301 304 303 303 304 302 299 297 299 301 302 301 302 300 300 301 301 302 301 301 301 301 303 304 307 309 312 313 313 314 314 317 321 322 323 323 323 324 323 323 323 323 324 324 324 324 324 324 324 325 326
321 322 324 324 323 321 322 322 321 321 318 320 319 317 315 315 315 316 316 314 314 313 312 312 310 307 305 306 306 306 306 305 305 303 301 298 302 307 303 302 302 305 304 303 302 301 302 302 301 301 301 301 301 300 301 301 301 301 302 308 312 313 314 315 315 315 316 318 320 320 321 322 322 322 321 322 322 323 324 324 324 323 324 324 325
317 319 319 320 319 320 320 320 319 319 316 318 317 318 317 315 314 313 314 313 313 312 312 311 309 310 308 305 304 304 304 303 302 303 299 298 300 301 303 305 306 306 304 303 304 303 302 303 303 302 302 301 301 300 300 300 301 301 303 307 312 315 316 316 314 313 313 313 315 317 320 320 319 319 320 320 320 321 322 322 322 322 323 323 324
313 315 316 317 318 318 318 317 317 317 314 316 316 316 316 315 315 314 313 313 312 312 311 311 310 310 309 308 305 302 300 299 299 300 299 300 299 300 302 301 301 304 305 304 302 303 305 305 304 303 301 301 300 299 299 299 300 301 302 304 308 311 313 312 312 312 312 312 313 314 316 318 318 319 319 319 319 319 320 320 321 321 322 322 323
311 311 314 315 316 315 316 315 315 312 313 314 314 314 314 314 313 313 312 311 311 310 309 309 309 308 308 308 307 306 305 302 303 302 301 297 299 300 302 302 301 299 300 300 303 304 304 304 303 303 303 302 302 300 300 299 299 301 300 302 305 307 309 311 312 312 312 313 314 314 314 314 314 314 315 316 317 317 319 319 318 320 321 322 322
309 309 308 306 308 312 313 313 313 313 313 313 313 313 312 312 311 310 310 310 310 308 308 308 307 307 307 307 307 306 305 304 304 304 303 301 300 298 299 299 298 299 301 301 301 303 303 302 302 302 302 301 302 301 300 300 300 299 299 301 304 307 310 312 312 311 311 311 312 312 312 311 310 310 311 313 315 317 317 318 318 318 319 320 320
304 305 302 304 306 308 308 308 307 308 310 311 311 312 311 310 309 309 308 308 308 307 307 306 306 306 305 305 305 305 305 305 303 303 303 302 300 297 297 298 295 295 296 296 294 292 300 301 301 301 300 300 300 300 300 299 299 300 299 300 302 304 305 307 309 309 309 309 309 310 310 310 309 310 312 313 314 316 317 317 317 318 318 319 319
304 304 303 302 304 305 302 299 300 301 303 305 307 309 309 308 307 307 306 306 306 305 305 305 304 303 304 303 302 303 302 300 299 300 302 300 297 295 294 293 293 292 293 290 290 291 289 293 298 299 298 299 299 299 299 299 299 299 298 297 300 302 303 304 306 306 308 308 308 307 307 308 309 309 308 312 312 312 314 315 316 316 316 317 317
303 302 302 302 301 302 300 299 299 299 300 302 305 308 308 307 307 306 305 303 302 303 303 303 302 301 301 301 300 300 299 298 300 300 301 300 299 297 294 290 289 289 287 288 288 289 290 290 294 297 298 297 299 298 298 297 298 298 296 298 298 298 300 303 305 306 306 306 305 305 304 304 305 306 306 307 309 310 311 312 313 314 314 314 313
298 301 299 300 300 299 298 298 297 297 297 300 303 303 300 301 301 301 300 300 299 297 298 299 299 299 298 297 297 296 296 296 297 298 298 299 298 298 296 293 289 285 286 284 283 283 286 288 287 294 296 296 295 295 295 296 296 297 296 297 297 297 299 301 304 303 303 302 302 302 302 302 303 304 305 304 304 305 307 307 307 307 306 306 306
298 297 297 297 298 298 298 297 296 296 296 296 298 297 297 297 296 296 294 294 294 293 293 293 292 293 293 293 293 292 290 290 291 292 295 297 298 298 297 292 292 288 284 282 283 282 284 288 286 286 291 292 293 293 294 294 295 295 295 295 295 296 297 300 301 301 301 301 301 301 301 301 302 302 302 302 303 303 304 303 303 303 304 305 307
298 296 297 296 296 295 296 294 293 294 294 294 294 294 294 293 293 292 291 289 289 288 288 289 288 287 287 287 287 287 287 286 287 288 289 291 291 292 293 295 295 290 288 285 284 287 285 286 288 287 288 288 289 291 289 291 293 294 293 293 294 294 296 297 298 299 299 299 300 300 301 301 301 301 301 301 301 302 303 304 303 304 305 306 307
296 296 296 295 294 293 293 291 292 292 292 291 291 291 291 290 289 288 287 287 287 287 286 287 286 285 284 285 284 285 285 286 287 285 286 285 287 288 290 293 294 293 290 288 285 286 286 285 287 287 288 288 288 288 289 288 291 291 291 291 291 292 293 293 294 296 297 298 298 299 300 300 300 300 300 299 301 302 303 303 303 303 304 305 306
295 294 293 292 291 290 289 290 289 289 289 288 289 288 288 287 286 287 285 286 286 286 285 284 285 284 284 284 284 284 284 283 284 284 285 284 285 286 286 289 291 292 291 289 286 285 288 286 287 287 285 287 288 287 287 288 289 290 289 289 290 291 290 291 292 294 295 296 297 298 298 299 299 299 299 299 300 301 301 301 302 303 303 304 304
291 291 291 291 290 290 289 289 289 288 288 286 285 287 287 286 286 286 284 285 287 284 284 284 283 284 284 284 284 284 283 284 283 283 283 283 282 283 283 285 287 288 289 287 285 284 286 287 285 286 286 287 286 285 286 287 287 288 289 289 289 289 289 290 290 291 293 294 294 295 296 297 297 297 297 297 297 298 299 300 300 301 301 301 301
291 291 290 289 289 289 290 289 288 287 288 288 285 286 287 286 285 285 283 284 286 284 284 285 284 284 283 284 284 283 282 283 282 282 281 282 281 281 282 282 282 282 283 285 284 283 282 284 284 285 285 283 284 286 285 285 286 287 286 287 288 288 288 288 289 289 292 293 294 294 295 296 296 296 296 296 297 298 299 300 299 297 299 299 299
288 290 289 289 289 289 288 287 288 287 287 286 285 286 286 286 286 285 285 285 285 285 284 284 283 282 283 282 282 282 282 282 281 281 282 282 282 281 281 281 281 281 282 282 283 282 281 282 284 283 283 284 284 284 285 286 286 286 286 286 286 287 288 288 288 288 291 292 293 294 294 295 295 295 295 295 295 296 296 296 297 296 297 297 298
288 287 288 288 288 288 287 287 287 287 286 286 285 286 286 286 286 286 285 285 285 284 284 283 283 282 282 282 281 282 282 281 281 282 282 282 282 281 281 281 281 281 281 281 282 282 282 281 282 283 283 283 284 285 286 286 286 285 286 285 286 286 286 287 287 287 289 291 292 292 292 292 293 293 293 294 294 294 294 295 296 296 296 296 296
287 287 286 287 287 287 288 287 287 286 286 286 286 286 285 285 285 285 285 284 284 283 283 283 283 282 282 281 281 282 281 281 281 281 282 281 281 281 281 281 281 281 281 281 281 281 281 281 281 283 283 283 284 284 285 284 284 284 285 284 285 285 286 286 286 287 289 290 289 289 290 291 291 292 293 293 293 293 294 293 294 294 294 295 294
287 287 287 286 287 286 286 286 286 286 285 285 285 285 285 285 285 284 283 283 283 283 282 282 282 282 282 281 281 281 281 281 281 281 281 281 281 281 281 281 281 281 281 281 281 281 281 281 282 281 283 282 282 283 284 283 282 282 283 284 284 285 284 284 285 286 286 286 285 285 288 289 290 291 292 292 293 293 293 294 293 293 293 294 295
287 286 286 286 285 286 285 285 285 285 285 285 284 284 284 284 284 283 283 282 282 282 281 282 281 281 281 281 281 281 281 280 281 281 280 281 281 280 281 280 280 280 280 281 282 282 282 282 282 283 282 283 283 281 282 283 283 283 282 282 282 283 283 283 282 284 285 284 286 289 288 289 289 289 289 290 292 292 292 292 292 292 291 292 292
286 286 285 285 284 285 285 284 284 284 284 284 284 284 284 284 283 283 283 282 282 281 281 281 281 281 281 281 281 281 280 280 280 280 280 280 281 280 280 280 280 281 281 282 282 282 282 281 281 281 281 281 281 281 282 282 281 281 283 281 280 280 281 283 283 282 283 284 284 284 286 287 287 288 289 289 289 290 290 290 290 290 290 291 291
285 284 284 285 284 284 284 284 284 284 284 285 285 285 284 283 283 283 282 282 282 282 281 281 281 281 281 281 280 281 282 283 284 284 284 284 282 280 280 282 282 282 282 282 282 281 281 280 280 281 280 280 280 279 279 280 280 279 281 281 280 281 281 281 282 284 284 283 283 284 284 284 283 284 284 284 285 287 287 288 288 288 289 291 291
283 283 283 283 284 283 283 283 283 283 284 285 287 289 288 285 284 283 283 282 282 281 281 281 280 280 280 280 280 282 283 283 283 283 284 284 284 283 282 282 282 281 281 281 280 280 280 279 279 279 278 278 279 279 279 280 281 281 280 281 279 280 281 281 282 283 284 283 283 282 283 284 283 283 283 283 285 285 285 285 285 287 289 291 292
283 283 283 283 282 282 282 282 282 283 284 286 289 290 290 289 285 283 283 282 282 281 280 279 279 279 279 279 280 280 280 280 279 282 282 283 283 284 284 284 284 282 281 280 280 280 279 279 280 279 278 278 279 280 280 280 280 280 280 280 280 280 279 278 277 281 285 284 282 281 281 284 284 282 283 284 284 284 285 285 288 290 290 292 292
282 282 282 282 282 282 282 281 281 282 284 288 289 289 289 289 286 282 282 282 281 280 279 279 278 278 278 279 279 280 279 278 279 278 280 282 283 284 284 284 284 284 284 282 281 279 280 279 278 279 279 278 279 280 280 280 280 280 281 281 280 280 279 278 279 278 282 283 281 280 281 284 284 283 282 284 284 285 285 288 290 291 291 292 292
282 282 281 281 281 281 281 280 280 281 282 288 288 288 288 288 286 283 281 281 280 279 278 278 278 278 278 279 278 279 279 280 278 279 280 280 283 284 284 284 283 284 284 285 285 283 282 280 279 279 279 279 279 280 281 281 282 280 281 280 280 280 280 279 279 279 281 283 281 280 280 282 284 283 282 284 284 285 285 288 290 291 291 292 292
281 281 281 280 280 280 280 280 280 280 282 286 287 287 287 286 285 283 280 280 279 278 278 277 277 278 278 278 277 277 278 279 279 279 280 281 282 282 282 282 282 283 284 284 284 284 283 281 280 279 280 281 280 281 282 283 281 280 280 279 280 279 279 279 280 281 282 283 281 280 279 281 283 282 281 283 284 284 285 287 290 291 291 292 292
281 281 280 280 279 279 279 279 279 280 282 286 286 287 287 285 284 282 279 279 278 278 278 278 278 278 278 278 278 278 279 279 279 281 281 282 282 282 282 281 282 282 282 282 281 281 281 282 281 281 282 282 282 283 283 283 282 282 282 281 281 280 281 282 281 282 282 283 282 281 276 280 282 281 282 283 284 284 285 288 290 291 291 292 292
279 279 279 279 279 278 278 279 278 278 281 285 285 285 285 284 283 280 279 278 278 278 278 279 279 279 279 279 278 279 279 279 280 283 284 283 282 281 281 281 281 282 281 282 283 284 283 283 283 283 283 283 284 283 283 283 282 282 282 282 282 281 279 278 277 279 279 282 282 280 278 279 282 281 281 283 284 283 285 285 288 290 291 291 292
279 279 278 278 278 278 277 278 277 277 278 282 284 284 284 283 281 278 278 277 278 278 278 279 279 279 279 279 279 278 279 279 281 284 284 284 281 281 280 280 280 280 279 279 282 284 284 284 284 284 284 284 284 284 284 284 283 282 281 279 277 279 277 275 275 276 277 280 281 281 280 278 281 281 281 283 283 283 284 284 285 289 290 291 291
278 278 277 277 277 278 277 277 277 277 277 280 283 283 284 283 280 278 277 277 277 278 278 279 279 279 279 280 279 279 279 279 283 284 284 283 281 281 280 279 277 276 277 279 281 281 283 282 282 282 282 282 282 283 283 283 283 282 279 276 277 278 276 276 274 276 278 279 280 283 279 278 281 282 281 282 283 283 283 284 285 286 287 287 288
278 278 278 277 277 277 277 277 278 276 275 278 282 283 283 282 280 278 277 276 277 278 277 277 278 278 278 279 279 279 280 281 283 284 284 283 281 280 278 276 275 275 278 279 279 278 277 276 276 277 277 279 278 278 279 282 282 281 279 278 278 277 275 275 275 275 274 276 280 282 278 278 280 281 281 279 278 282 284 283 282 282 280 280 281
Wind_Speed
5 5 3 4 4 3 3 4 3 2 2 2 2 2 2 2 3 3 2 3 3 5 3 3 3 3 2 4 4 3 3 3 3 4 4 5 5 6 9 10 10 9 11 13 14 15 15 15 15 14 14 14 14 14 13 14 14 13 12 13 15 14 14 15 16 15 15 14 16 16 16 17 17 17 18 17 17 17 17 18 18 18 18 18 17
5 4 4 5 4 3 3 4 4 3 3 4 4 3 3 2 3 3 4 4 3 5 2 3 5 3 3 5 4 5 4 3 4 4 4 5 5 6 9 10 10 10 11 13 15 16 16 17 17 17 16 15 14 16 17 15 16 14 13 15 17 17 16 17 15 15 15 16 16 17 17 19 18 19 19 19 20 20 19 19 19 19 20 19 20
5 5 4 4 4 3 4 3 3 4 4 5 3 4 3 4 5 4 4 4 5 3 2 3 4 5 4 3 5 4 5 4 4 4 4 5 5 5 6 9 10 10 11 13 15 16 17 17 18 18 19 19 18 17 16 16 18 18 17 20 19 20 22 19 19 17 15 19 19 19 19 20 20 20 20 20 21 21 20 20 21 22 21 21 22
5 4 5 5 5 5 4 3 5 3 5 5 5 4 4 3 3 3 3 3 4 3 2 2 5 4 4 5 5 5 6 5 5 5 5 5 5 5 5 6 9 11 11 12 14 16 17 18 18 19 20 20 20 21 20 18 19 19 17 19 22 25 23 20 20 21 19 18 20 21 20 20 21 22 21 21 21 21 22 21 21 22 22 22 22
6 6 6 5 5 5 4 4 5 4 4 4 3 3 3 3 5 2 3 3 3 5 2 2 4 5 3 5 4 5 5 6 6 6 6 5 5 5 5 5 5 8 11 11 12 14 16 17 19 19 20 21 22 22 23 22 23 21 22 20 21 22 20 22 23 22 23 22 22 21 21 22 22 23 23 24 23 23 23 22 23 23 24 23 23
5 5 5 5 5 5 5 5 5 4 3 3 5 4 4 3 5 2 5 3 4 5 3 5 5 3 4 5 4 5 5 5 5 5 5 6 6 6 6 5 5 5 6 10 12 12 14 16 17 18 21 22 23 24 24 24 24 25 23 25 25 24 22 21 21 24 22 24 22 23 22 22 23 24 25 25 25 25 25 24 24 26 24 25 25
6 6 6 6 5 5 5 6 5 3 4 4 5 4 3 4 3 4 4 4 5 5 4 5 4 5 6 4 5 5 4 6 5 5 6 6 6 6 6 6 6 5 6 6 8 11 11 13 15 17 18 20 23 25 26 26 26 28 27 25 27 25 25 25 23 23 21 23 25 21 23 24 25 25 25 26 26 26 26 26 28 26 28 27 26
6 5 6 6 6 5 6 5 4 4 5 4 2 4 5 4 5 5 5 5 5 5 3 5 5 5 5 5 6 5 5 6 6 7 7 6 6 6 6 6 6 6 6 6 6 6 10 10 13 14 15 16 18 20 22 25 26 27 28 29 30 28 28 26 23 23 22 22 21 23 26 23 22 26 27 27 28 28 28 28 28 28 27 28 27
6 6 5 5 5 5 5 5 5 5 5 5 5 5 4 5 5 5 5 7 4 4 5 6 5 5 5 6 6 6 6 6 6 6 6 6 7 7 6 6 6 5 6 6 5 5 7 10 10 12 12 14 16 18 19 22 24 26 27 28 28 30 29 29 28 28 23 21 24 21 23 26 24 26 28 27 30 29 30 30 29 29 30 28 30
6 6 5 5 5 6 4 3 3 3 3 4 5 3 2 2 5 3 4 3 5 5 6 5 3 5 6 7 7 5 6 6 6 6 6 8 7 7 6 5 5 5 5 5 5 5 5 8 12 12 12 11 15 17 20 21 22 23 24 26 27 28 28 28 30 28 29 26 24 23 23 23 24 28 30 29 27 27 31 30 31 31 30 30 30
7 6 6 5 4 4 5 5 3 3 3 2 3 3 3 2 4 7 2 4 5 5 5 4 5 5 6 8 6 6 6 6 6 6 7 7 6 6 4 5 4 5 6 6 5 5 6 6 6 6 8 12 14 17 19 20 21 22 23 23 24 26 27 27 28 28 28 28 29 28 24 25 25 25 28 28 28 29 31 32 31 30 34 32 31
6 6 6 5 5 4 4 4 5 4 3 3 3 3 5 5 6 5 4 3 4 4 3 4 5 5 8 8 7 6 7 6 6 7 7 5 5 4 6 5 4 6 6 5 5 6 6 7 6 6 6 9 12 13 16 18 19 20 21 22 23 24 26 26 27 27 28 28 28 28 28 27 26 26 26 30 30 27 30 30 32 31 32 36 35
6 6 6 6 6 6 6 4 2 3 5 6 5 5 5 4 2 1 4 4 4 3 4 2 4 5 5 6 7 4 7 6 7 6 5 5 5 5 5 4 6 6 6 4 5 6 6 7 7 6 7 6 8 11 13 15 16 18 20 20 21 23 25 26 27 27 26 27 27 29 29 28 28 29 30 27 27 28 29 32 32 32 32 32 32
6 6 6 6 6 5 5 5 3 3 3 4 4 5 5 4 3 3 3 5 4 2 2 3 1 3 3 5 6 6 6 4 5 4 5 6 5 4 5 5 7 6 5 4 5 5 6 7 6 7 7 6 7 7 8 9 10 15 18 20 21 23 25 26 27 27 27 26 27 28 29 30 30 30 29 31 31 30 30 27 30 29 31 34 35
5 6 6 5 5 6 6 7 7 7 7 6 4 6 5 6 5 5 4 2 4 2 3 5 4 1 1 2 4 5 3 2 1 3 4 5 2 3 5 5 7 5 5 3 5 6 6 6 6 7 7 6 6 7 8 9 12 15 17 19 19 22 24 25 26 26 27 27 27 28 27 28 30 30 31 32 32 31 33 30 28 28 30 33 36
6 6 6 5 6 5 4 3 5 5 5 5 6 7 5 3 4 6 5 3 2 3 3 5 5 1 4 3 2 1 6 2 3 5 4 2 2 5 3 5 5 5 3 5 6 5 6 5 6 6 6 7 7 7 8 8 12 15 16 16 16 19 22 23 24 26 26 27 28 28 28 29 27 30 30 31 32 31 33 34 33 30 29 29 29
6 6 6 6 6 6 6 6 5 5 6 6 6 5 3 5 6 6 6 5 4 2 2 4 5 5 3 2 3 1 4 4 4 6 1 0 3 4 3 4 6 5 4 6 5 6 6 6 7 6 7 7 7 7 8 9 9 8 11 13 15 16 19 22 24 25 26 26 27 28 28 28 29 30 30 30 32 32 34 33 33 33 33 30 27
5 5 5 5 5 5 4 5 5 4 4 5 4 3 4 5 5 6 8 7 5 3 2 0 3 3 4 5 2 3 4 2 3 4 2 4 3 3 4 5 5 5 5 6 7 7 6 7 6 7 7 7 7 7 7 8 8 8 7 10 16 17 18 20 23 24 25 26 26 27 27 28 29 30 31 31 32 32 33 33 34 34 34 33 34
5 5 5 6 5 5 5 5 3 3 4 4 3 3 3 3 2 2 4 1 2 2 4 3 0 2 3 4 4 2 1 2 3 3 7 1 3 3 5 6 4 3 5 7 8 7 7 6 7 7 7 7 7 7 7 8 10 10 12 16 19 19 19 19 20 22 23 25 26 27 28 28 29 29 31 32 32 33 33 34 34 34 34 33 33
5 5 5 4 4 3 3 4 3 1 2 3 4 3 3 2 2 0 1 2 3 4 2 0 2 2 0 2 3 2 2 2 4 4 5 7 6 5 3 3 4 7 7 7 7 7 8 6 6 7 6 7 7 6 7 8 7 8 8 13 18 19 19 20 19 19 21 24 26 26 27 28 29 31 32 32 32 32 33 34 34 33 34 33 33
4 4 4 4 4 4 4 3 4 5 4 3 2 5 6 3 2 2 1 2 2 1 1 1 2 3 0 1 0 1 3 3 1 0 2 4 8 5 10 8 7 6 5 5 8 7 7 7 7 7 7 7 6 6 7 7 7 7 8 13 17 19 21 22 21 20 21 21 23 25 27 28 30 31 31 32 33 33 33 32 33 34 35 34 34
3 4 5 5 5 5 5 5 3 3 4 5 3 4 6 4 3 3 2 3 1 2 1 1 0 0 0 0 0 1 1 2 2 2 2 3 7 9 7 9 11 9 10 8 5 7 9 9 9 7 6 6 6 6 6 6 7 7 8 13 15 19 21 21 21 21 21 21 21 23 24 26 29 30 31 32 32 33 34 35 35 35 35 36 36
5 4 5 5 5 5 5 4 4 3 3 4 4 4 4 4 4 4 3 3 4 5 4 3 2 2 2 1 1 2 1 1 3 2 3 3 6 7 8 7 10 14 5 4 9 9 9 8 8 9 8 8 7 6 6 6 7 9 14 13 13 16 17 19 21 20 21 21 22 22 24 26 29 31 32 33 33 33 33 33 35 37 36 35 36
4 5 4 4 4 4 5 5 5 4 4 3 4 4 3 4 4 4 4 5 4 5 5 5 4 4 4 3 4 4 3 3 3 3 3 4 6 8 8 9 8 5 9 8 6 9 8 8 7 8 9 7 8 8 8 7 9 14 13 13 13 15 19 21 23 23 23 23 23 24 25 28 29 31 32 32 32 33 33 34 34 35 36 36 37
4 5 3 4 4 5 5 5 4 3 4 4 4 5 5 5 5 4 4 5 5 5 5 4 3 4 3 2 3 3 4 2 2 2 2 3 5 8 7 6 10 12 7 5 5 3 7 8 8 8 7 7 7 8 7 8 8 11 14 12 17 16 19 20 23 24 23 23 23 25 28 28 30 30 31 31 32 32 33 34 34 34 35 35 35
7 5 5 4 3 4 6 5 3 3 4 4 5 5 5 5 4 5 5 4 4 5 4 3 4 3 3 4 4 3 2 3 3 3 4 4 4 5 9 6 6 10 7 3 3 4 4 4 6 6 6 7 7 7 8 7 8 11 15 13 14 17 18 19 22 23 23 24 26 28 29 29 30 31 32 32 32 33 34 34 35 35 35 35 35
6 5 5 6 5 5 5 5 4 4 3 4 5 6 6 6 5 5 4 3 4 5 5 5 5 4 4 3 3 4 3 3 3 2 2 2 3 5 6 11 9 4 5 5 5 5 8 3 5 6 7 6 7 6 6 6 8 13 15 12 12 17 18 20 23 24 25 27 29 31 31 32 33 33 33 33 32 33 33 34 34 35 35 35 35
4 6 3 5 6 6 5 5 4 4 4 5 5 5 4 6 5 5 5 3 6 5 4 5 4 4 3 3 4 2 2 2 2 2 3 3 3 3 4 3 7 12 11 10 2 5 4 3 4 6 6 5 4 5 7 8 8 15 16 10 11 13 18 21 25 30 31 31 31 31 31 31 31 33 32 33 34 33 33 32 33 35 35 36 36
6 4 6 4 5 6 6 5 5 5 4 4 5 5 5 6 5 5 5 4 6 5 4 5 3 3 4 4 3 2 3 3 3 2 2 1 1 1 1 1 3 4 8 10 17 4 5 1 3 4 1 4 8 5 7 8 10 12 11 11 11 11 15 20 26 29 31 32 33 32 32 32 32 34 35 35 35 35 34 35 36 36 36 37 36
7 5 6 6 6 6 7 6 4 5 5 5 5 5 7 6 6 5 3 4 6 4 4 4 4 4 4 4 4 3 3 3 2 2 1 1 1 2 2 1 2 4 3 8 14 8 5 4 3 4 5 6 5 8 4 6 11 13 9 10 11 12 18 23 24 26 27 29 30 31 31 32 33 34 34 33 34 34 34 34 35 34 35 35 36
7 7 6 6 6 6 6 6 5 5 5 5 5 5 6 6 4 5 3 4 5 5 3 5 4 5 5 5 4 4 4 3 3 2 1 1 3 1 2 2 3 4 6 6 10 7 3 9 7 2 7 10 5 6 9 6 8 13 11 11 12 16 21 17 21 23 25 28 29 29 30 31 32 32 34 37 36 35 35 35 35 35 36 36 36
6 6 7 7 7 7 5 6 6 5 6 4 5 6 6 5 4 5 3 5 6 6 5 5 4 5 5 5 4 4 5 4 4 5 5 4 4 4 3 2 3 4 5 6 9 18 15 8 12 10 3 9 11 9 10 8 7 12 11 11 13 18 13 12 16 20 22 27 29 29 30 31 31 32 32 34 34 35 36 37 37 37 36 36 35
7 7 7 7 6 7 6 6 6 6 6 5 4 5 6 6 4 5 5 6 7 5 5 6 5 5 5 4 4 4 4 5 4 4 4 4 3 3 3 2 3 3 4 7 10 15 18 7 4 10 10 10 11 7 12 13 13 11 11 11 13 12 12 11 13 17 21 24 29 30 29 30 31 34 36 36 36 35 36 36 37 37 37 35 35
6 8 7 6 6 6 7 6 6 6 5 6 4 5 6 6 5 4 6 6 6 5 5 6 6 6 5 5 4 4 4 3 4 4 3 3 3 3 3 2 3 4 3 3 7 10 18 18 13 7 9 4 11 9 11 13 16 16 15 12 10 11 12 12 13 13 19 20 28 31 31 32 32 32 35 36 34 34 35 36 36 38 36 37 36
5 7 7 7 7 7 7 6 6 6 6 5 4 5 5 6 6 5 5 6 6 6 7 5 4 3 3 3 3 3 3 4 4 3 3 3 3 3 4 3 3 4 4 4 6 11 14 18 15 12 11 10 8 12 12 12 12 13 17 14 13 12 11 12 12 11 19 28 31 32 31 31 31 33 33 34 34 34 35 35 36 39 36 36 36
7 5 6 7 7 7 8 6 6 6 6 5 5 5 5 5 6 6 6 6 6 6 5 3 2 2 2 3 3 3 4 4 4 4 4 4 4 3 4 4 3 4 4 4 5 7 11 15 18 13 11 13 13 10 11 12 12 12 12 14 13 14 14 12 11 13 17 26 28 29 31 33 33 33 33 33 32 35 35 37 36 38 37 35 34
7 7 6 6 7 7 8 7 6 6 5 5 6 6 5 5 6 6 6 6 5 4 3 2 2 3 3 3 4 4 4 4 4 5 5 5 5 5 5 5 5 5 4 5 6 6 9 13 16 14 13 11 11 12 9 13 15 14 14 14 13 12 13 12 11 12 21 31 27 27 28 31 32 30 31 32 33 33 34 38 38 38 37 35 35
7 6 8 6 6 7 6 6 6 6 5 5 6 6 5 5 6 6 5 5 4 3 3 3 3 3 3 3 3 3 3 4 5 5 5 6 6 5 6 6 5 5 5 5 6 7 8 11 12 16 14 13 13 11 9 7 12 15 15 16 14 10 11 14 11 10 10 12 13 13 16 19 22 29 32 31 32 33 32 34 37 38 35 33 33
9 8 6 7 5 7 7 7 7 7 6 6 6 5 5 5 5 5 4 4 3 3 3 3 3 3 3 3 3 3 3 4 4 5 5 6 5 5 6 5 5 5 6 6 7 8 9 10 10 10 13 11 10 14 11 10 11 10 13 12 16 15 13 14 17 13 12 11 12 18 18 20 23 21 27 32 33 34 34 33 33 33 33 33 35
8 8 9 9 7 7 7 7 6 7 7 6 5 5 5 5 5 4 4 3 3 3 3 3 3 3 2 2 3 3 3 4 4 4 4 5 5 4 5 4 5 6 7 7 7 8 9 9 10 11 10 13 12 9 10 10 10 9 7 11 13 16 14 15 14 17 15 13 9 7 12 17 17 19 22 24 30 31 31 30 28 30 30 32 34
6 7 7 9 9 9 7 7 7 6 7 6 4 4 5 4 4 4 3 3 4 4 3 3 2 2 3 3 3 3 5 7 9 7 8 8 5 5 5 5 6 7 7 7 7 8 9 9 10 8 10 12 10 10 11 11 12 13 14 11 12 13 13 14 15 15 12 13 15 9 11 12 12 12 11 11 17 21 19 23 22 25 27 29 32
7 7 7 7 8 9 9 7 6 6 6 4 7 9 7 5 4 4 4 4 4 3 3 3 3 3 3 3 4 7 8 7 7 9 10 10 10 7 6 6 7 7 7 7 7 7 8 11 11 11 12 14 12 10 12 11 13 12 14 13 13 13 12 13 15 12 13 10 11 15 13 13 11 15 11 11 12 14 13 13 13 19 23 31 33
8 7 8 9 8 7 8 8 7 6 5 5 10 10 11 9 5 5 5 4 3 3 3 3 3 3 3 3 3 4 4 5 4 8 11 10 10 11 12 11 10 9 9 10 9 8 8 9 10 11 11 14 14 12 11 12 10 11 12 13 13 13 12 15 19 15 10 10 14 15 16 14 9 14 14 11 11 11 13 14 20 25 29 31 33
7 7 8 8 8 7 7 7 7 6 5 8 11 11 10 11 9 6 5 4 3 2 2 2 2 2 3 3 3 2 3 3 4 4 7 10 11 12 12 12 13 14 13 10 10 10 10 10 11 10 10 11 15 11 11 10 14 13 15 14 11 13 12 15 13 16 16 12 13 16 17 17 10 12 14 13 11 11 15 20 26 29 30 32 33
8 9 8 8 8 7 8 8 7 6 5 9 11 11 11 12 12 7 5 3 3 3 2 2 2 2 2 3 3 3 2 6 5 5 6 6 9 11 12 13 13 14 14 16 15 12 10 11 12 14 12 11 13 11 11 13 13 13 13 13 13 12 14 15 17 16 18 13 13 14 16 17 11 14 18 16 12 12 15 19 25 29 30 31 33
8 8 7 9 7 7 7 8 7 6 5 8 11 11 11 12 11 8 4 4 3 2 1 1 1 2 3 2 2 4 3 4 4 5 6 6 6 6 6 7 7 9 13 14 15 18 14 10 11 13 13 9 13 13 14 12 13 12 13 13 14 15 16 18 19 19 18 12 12 13 16 17 11 13 18 16 12 12 12 17 26 30 31 31 31
9 9 9 8 7 7 7 7 7 7 5 10 11 11 11 12 11 7 4 3 2 1 1 1 1 2 2 2 2 3 4 6 6 8 8 8 7 7 7 8 8 7 7 8 7 7 7 8 10 11 13 12 11 13 12 12 12 12 11 15 15 15 15 17 15 15 16 9 9 10 16 16 11 13 17 14 12 11 11 15 22 27 30 29 30
5 6 5 6 8 7 6 7 8 8 6 11 11 11 11 11 11 5 3 2 1 1 0 1 1 2 2 2 2 4 6 6 8 14 13 10 8 9 10 9 8 7 6 7 13 14 13 12 11 11 12 16 21 18 18 16 13 12 13 12 12 11 14 13 14 13 14 11 9 12 13 15 10 12 15 13 12 11 11 12 15 23 27 26 26
8 7 7 5 5 7 7 6 8 8 6 8 10 10 10 12 7 3 2 1 1 2 1 1 0 2 3 2 2 4 6 6 10 15 16 15 8 10 10 10 9 7 7 7 11 16 18 20 22 24 25 24 24 25 25 27 20 16 11 12 12 13 13 16 14 13 16 14 11 11 13 15 10 12 15 14 12 13 12 12 10 14 21 22 22
8 7 7 7 5 5 7 7 7 8 6 6 10 10 9 11 7 3 2 2 1 2 2 2 2 2 2 6 6 5 6 6 12 16 17 13 8 9 10 11 12 11 9 8 9 10 15 17 19 20 20 21 22 24 25 23 23 17 10 12 13 12 14 13 15 12 12 12 10 10 13 14 14 12 15 14 13 9 10 10 12 13 16 13 17
8 7 6 8 7 6 6 7 9 8 6 5 9 9 9 9 6 2 2 1 2 3 2 2 3 2 2 4 7 7 7 9 15 15 16 13 8 9 9 10 11 12 10 11 11 13 14 14 12 12 12 13 11 10 11 20 21 16 10 12 12 12 14 15 15 14 13 12 10 13 15 15 15 16 14 13 12 12 6 8 10 10 8 9 9
Wind_Direction
192 200 180 208 215 202 194 208 205 215 171 223 192 213 239 256 276 280 294 285 281 285 283 297 297 302 283 289 295 301 293 280 271 268 269 260 259 262 265 266 266 268 264 270 274 280 282 283 285 287 285 278 278 282 256 250 250 245 246 255 253 258 264 269 265 248 258 256 257 259 257 257 255 253 253 251 250 247 247 247 248 248 249 249 252
197 195 184 214 217 211 205 218 210 200 176 217 217 199 225 230 257 266 269 268 274 263 269 279 289 272 262 273 287 274 275 256 260 255 256 262 261 263 266 264 265 265 265 266 270 275 277 280 285 287 288 289 279 271 279 271 251 257 253 257 255 249 245 259 262 262 265 253 245 247 253 254 254 255 254 253 250 247 246 246 246 245 246 246 246
194 191 197 210 215 209 222 211 230 212 195 225 204 212 209 215 222 238 247 251 253 266 260 274 285 300 289 289 279 294 284 279 268 261 261 257 257 261 268 269 267 263 266 265 267 269 273 277 281 286 290 292 293 291 285 274 279 278 280 272 260 259 275 272 274 272 252 246 254 248 251 251 253 253 254 253 252 252 249 246 246 246 246 246 246
192 190 196 202 211 214 220 202 233 222 204 214 214 213 216 228 229 232 241 243 264 275 239 259 280 278 299 292 294 292 285 284 282 275 269 269 265 268 266 269 270 268 266 268 267 268 270 275 278 282 287 289 291 293 293 291 283 281 271 271 273 275 270 267 261 263 269 258 252 250 245 249 250 251 252 253 252 251 251 250 249 249 248 247 247
194 192 196 202 206 211 220 222 237 233 217 223 224 217 213 233 252 226 258 263 282 276 265 256 273 278 289 278 289 284 278 290 286 291 282 278 271 265 267 268 270 277 276 272 271 272 273 273 275 279 282 287 292 292 291 289 287 286 287 275 276 279 284 271 265 268 270 263 255 254 249 249 246 249 251 250 251 248 247 248 249 248 249 249 247
190 198 192 197 203 206 210 225 233 233 227 212 220 205 217 216 245 242 258 258 263 272 298 284 273 282 276 270 283 269 285 291 278 279 286 283 278 273 268 266 264 264 268 272 270 271 274 275 276 275 278 283 288 290 292 291 291 290 287 288 289 289 280 273 272 269 269 271 271 263 256 247 241 246 249 249 249 249 248 245 244 246 246 247 248
198 191 196 193 197 208 208 221 215 192 200 218 209 186 190 223 227 242 268 255 252 265 258 262 280 289 278 274 272 272 280 270 283 281 274 268 266 265 264 263 264 263 264 265 273 273 272 277 279 283 284 286 288 289 291 292 293 292 291 289 288 289 291 290 289 286 272 266 265 270 271 261 254 247 241 246 248 247 246 247 246 244 243 244 244
194 190 188 193 194 202 213 213 207 186 195 191 222 203 191 198 212 213 238 263 258 266 242 258 256 265 273 279 275 278 275 281 279 276 271 282 275 272 266 262 260 257 263 269 270 274 281 284 284 285 288 290 292 293 295 296 296 295 295 294 294 292 290 291 293 285 280 272 264 262 264 264 266 258 250 247 248 248 247 248 248 242 244 244 242
195 192 191 188 191 196 214 211 200 195 195 196 196 225 202 205 221 215 212 245 241 259 269 247 261 263 276 276 271 279 275 269 272 273 294 279 275 270 270 266 261 267 270 275 280 280 286 283 282 284 288 289 290 291 291 290 291 293 295 297 297 297 299 298 295 293 288 283 278 263 257 261 258 261 258 253 254 253 249 249 249 250 248 245 246
197 195 202 197 195 190 193 208 200 204 206 195 217 215 253 236 246 235 214 222 243 237 254 261 265 283 277 271 277 273 267 269 265 271 264 270 267 266 266 273 281 277 277 273 273 285 280 282 283 285 284 282 284 286 288 289 290 291 291 292 294 297 299 299 299 299 299 296 288 278 272 268 261 259 256 255 254 253 256 257 251 249 248 245 245
202 198 200 197 200 211 185 183 168 182 197 220 237 237 217 208 222 246 205 227 233 238 248 274 275 268 275 278 282 272 270 264 264 262 259 257 269 278 301 278 290 283 283 279 285 282 282 278 281 284 284 285 286 288 289 290 292 292 293 294 295 295 295 295 297 298 299 298 297 294 285 275 268 265 267 265 261 259 260 256 249 249 253 252 246
206 203 204 199 198 192 211 203 181 168 191 210 234 220 226 233 243 245 260 267 253 258 253 258 267 281 282 284 272 276 277 264 258 252 260 267 267 278 273 288 287 281 276 282 293 288 284 284 284 284 287 288 288 287 287 288 289 290 290 293 295 297 297 296 295 295 297 299 300 301 300 296 290 281 273 263 260 261 263 262 256 249 249 251 250
205 202 208 203 209 217 208 211 228 210 189 208 212 223 233 233 255 205 244 268 278 212 246 214 286 291 275 276 294 255 249 260 256 263 276 273 261 263 269 286 275 273 274 287 286 286 286 289 290 291 287 289 290 288 286 287 287 287 287 288 292 297 298 298 299 300 301 301 302 301 301 302 301 301 299 296 286 274 264 262 260 259 252 248 250
200 201 210 208 203 202 204 211 198 198 212 219 221 226 232 225 204 256 202 223 259 216 210 110 255 231 303 318 304 299 275 248 263 278 267 268 259 262 275 268 274 270 280 278 278 280 283 283 283 284 283 283 284 288 291 290 287 283 285 288 293 296 298 299 300 300 299 298 297 297 299 299 299 299 300 300 296 292 285 272 268 261 258 256 253
199 202 204 204 208 207 209 204 199 207 214 215 221 237 227 222 199 215 260 230 244 260 186 183 249 160 155 351 300 347 332 333 326 277 268 267 311 275 266 263 262 268 275 295 283 282 277 272 274 275 278 282 280 280 281 281 280 280 283 287 288 289 293 295 297 300 301 300 299 299 298 298 299 299 298 296 295 294 294 294 286 273 266 260 257
200 202 207 206 203 207 216 236 232 215 206 215 226 235 222 217 208 222 218 252 215 275 201 193 201 168 305 211 247 101 316 302 300 280 256 269 207 249 246 261 274 287 306 278 275 274 274 277 279 280 281 274 272 274 277 278 282 286 285 284 283 285 287 290 294 297 300 300 300 299 298 297 295 295 295 295 297 299 298 297 295 293 286 275 271
201 204 202 208 206 210 214 222 221 219 218 226 229 228 217 220 218 223 195 205 245 235 261 192 209 210 223 316 321 16 227 269 336 296 1 332 279 253 279 276 278 282 286 284 286 281 283 289 280 277 272 272 272 271 273 276 280 280 284 282 281 281 283 286 290 294 297 299 300 300 299 299 300 299 298 297 296 295 296 297 298 298 297 295 286
203 203 205 209 213 212 212 221 223 229 225 227 227 216 234 225 229 220 214 213 219 223 281 303 233 215 225 226 231 285 319 288 343 308 334 242 268 322 285 263 268 278 292 288 287 287 281 279 275 276 273 270 268 270 269 271 272 275 273 280 281 283 281 282 288 292 296 299 301 301 301 301 300 299 297 297 296 296 296 295 295 296 295 294 293
205 202 204 205 207 209 211 208 209 226 215 205 194 205 214 217 220 214 247 164 146 230 241 250 253 254 249 271 313 280 192 343 284 302 307 326 14 321 300 277 266 267 276 284 287 285 277 264 271 270 274 269 270 267 269 269 271 270 271 279 286 287 286 286 286 289 296 300 301 301 302 301 301 300 299 299 298 298 295 294 293 293 292 293 293
196 199 199 197 197 201 194 170 151 148 161 155 144 133 124 98 117 215 191 171 171 197 226 177 217 286 238 237 262 306 340 248 239 244 283 299 309 299 242 275 334 306 294 282 269 269 282 283 276 274 267 269 264 265 264 268 270 273 278 279 285 288 289 291 291 291 294 298 299 300 301 301 302 302 301 299 298 296 297 297 297 296 295 294 291
166 157 150 137 132 121 102 90 116 116 108 100 87 105 85 66 58 88 154 162 186 167 122 221 181 229 189 331 347 286 283 239 208 131 288 312 309 325 317 315 300 281 262 263 288 293 283 280 273 273 280 276 270 262 263 265 268 269 272 277 283 289 293 295 295 294 293 292 293 294 296 299 301 302 303 302 301 299 298 296 295 294 295 294 291
137 141 132 129 119 110 109 110 102 112 124 122 109 88 99 100 110 106 92 104 118 141 132 247 159 59 95 179 68 297 328 16 28 356 261 232 282 307 303 312 315 311 318 303 288 292 294 297 300 287 275 269 264 259 261 265 270 276 274 276 282 288 291 292 290 289 289 289 286 287 289 293 299 301 301 301 300 299 298 297 296 294 292 292 291
139 130 125 128 123 123 122 124 127 128 118 112 131 128 129 126 112 106 94 87 77 74 78 69 78 76 58 63 48 79 40 290 321 342 351 316 313 305 314 312 308 306 277 283 303 294 291 296 296 300 304 305 300 295 287 283 283 280 283 287 286 288 289 292 294 294 294 293 293 293 295 298 301 302 302 301 300 298 297 296 296 295 294 292 292
130 125 115 113 119 120 125 128 135 139 132 133 117 112 113 117 106 83 77 72 73 78 75 75 67 77 78 63 59 65 63 48 24 7 341 322 316 308 314 318 297 249 297 300 256 266 272 274 274 285 291 297 299 301 302 301 295 295 298 298 297 295 297 301 302 300 297 294 294 295 296 299 300 301 300 300 299 299 299 298 297 296 295 294 292
153 137 160 144 141 124 108 107 92 95 124 107 98 98 88 76 84 84 74 71 72 75 78 78 77 79 95 84 84 66 59 40 48 23 335 332 337 316 300 309 296 298 290 291 287 247 236 256 266 267 274 276 282 289 292 296 292 296 300 302 301 301 303 302 303 301 297 294 291 291 296 297 298 299 301 301 300 299 299 298 298 297 297 296 295
162 164 163 150 130 125 120 102 104 88 92 100 99 92 92 96 87 81 75 89 88 85 88 90 78 67 60 67 53 69 68 42 35 15 10 358 335 317 318 303 270 282 295 262 284 335 315 271 261 267 272 280 273 281 291 291 299 302 306 309 309 309 306 302 301 301 296 295 298 300 300 300 302 303 302 301 300 300 299 298 297 296 296 295 295
162 148 146 135 126 114 109 108 112 108 100 95 91 92 99 98 102 104 97 81 86 76 57 62 57 50 53 71 65 41 43 38 35 29 35 5 330 321 329 326 319 253 277 286 284 233 249 278 248 259 267 255 278 283 296 312 313 312 314 315 310 307 307 304 304 304 304 305 306 307 307 306 305 304 304 303 301 301 301 300 299 298 298 297 296
139 135 139 132 124 110 98 98 100 94 91 103 103 104 104 102 93 91 80 50 84 77 76 81 65 58 63 49 62 31 31 34 37 28 33 9 339 342 332 325 325 320 322 307 266 282 235 264 296 247 255 286 303 326 334 326 321 314 314 311 306 307 309 310 311 311 311 311 310 309 309 308 306 306 305 304 304 303 303 302 301 299 297 295 294
132 129 122 109 115 115 110 104 98 102 95 93 98 102 97 90 96 91 88 79 86 78 74 81 60 62 54 46 56 13 353 5 13 22 6 332 299 293 292 290 319 304 319 315 312 336 303 187 295 303 309 353 341 335 331 311 307 306 305 305 305 304 305 305 307 308 308 308 309 310 310 309 308 307 307 306 305 304 302 301 300 299 298 297 296
128 127 120 117 109 112 111 108 105 98 100 94 96 98 99 93 97 85 97 104 92 74 55 73 56 47 38 28 24 0 343 10 345 329 0 314 304 289 255 271 285 292 281 304 299 305 288 301 173 289 325 330 323 307 320 297 297 305 302 305 307 305 304 304 304 303 302 303 304 305 306 306 307 308 307 306 305 303 302 302 301 300 299 298 297
124 125 119 117 113 106 112 111 102 98 92 99 104 98 103 103 90 92 81 97 94 82 60 68 54 59 39 21 355 0 352 353 340 348 346 30 333 340 316 308 297 286 290 289 298 280 98 317 300 348 313 318 339 320 313 316 309 312 311 308 306 303 302 301 300 302 303 304 305 306 306 304 303 303 303 303 303 303 303 303 302 300 299 298 297
124 125 126 124 122 119 114 113 105 103 99 96 103 105 95 99 113 97 88 91 84 77 62 57 65 70 60 33 358 352 347 354 0 360 357 1 15 354 345 334 303 290 287 284 271 282 298 302 301 311 3 321 325 327 319 318 311 308 309 308 305 304 304 304 302 302 302 304 305 307 306 304 303 302 300 299 300 300 301 302 301 300 299 299 298
129 126 122 125 124 123 119 115 116 117 112 105 106 111 105 103 89 101 82 77 81 63 68 49 52 55 42 26 7 353 357 1 340 338 345 341 350 345 328 333 284 279 281 283 285 291 296 290 280 305 331 336 320 351 326 322 320 315 309 308 308 307 306 306 305 303 302 302 304 304 306 306 305 304 303 302 301 300 299 299 298 299 300 299 297
129 119 121 125 123 122 117 118 116 115 112 116 124 115 115 106 93 85 102 85 78 67 61 45 27 30 29 18 350 343 345 344 324 330 328 333 346 349 331 318 292 291 279 290 286 289 293 307 311 316 313 345 313 333 327 322 318 318 315 313 307 306 308 308 307 305 303 301 309 311 310 307 305 305 304 303 303 302 301 299 298 298 297 297 296
101 123 130 128 125 121 116 120 121 117 118 117 115 108 106 106 100 81 77 77 71 60 49 39 25 14 21 3 322 330 337 352 338 329 328 338 337 346 325 317 307 292 287 261 288 295 299 299 305 315 320 325 323 322 322 314 309 309 310 315 318 313 307 305 302 302 309 312 311 309 308 308 307 307 306 304 303 301 301 300 298 296 294 294 294
121 118 124 128 124 124 124 123 121 120 112 106 96 88 95 96 90 85 73 66 63 63 65 44 24 23 4 0 346 353 350 353 340 340 339 341 344 338 324 315 304 298 286 281 260 275 295 300 306 316 321 321 318 317 314 306 308 310 310 311 311 308 307 307 307 304 302 306 312 313 312 309 306 304 303 303 303 302 301 299 296 294 292 291 292
127 127 120 123 124 128 127 125 118 108 108 105 97 87 78 80 85 80 70 67 65 69 73 64 26 26 11 9 342 351 353 348 335 343 336 341 338 337 331 319 314 301 297 289 284 278 288 293 301 306 311 304 300 304 312 317 319 318 312 307 307 303 306 299 298 299 305 311 310 305 301 300 302 303 304 304 302 301 300 300 298 297 295 292 292
132 132 132 129 126 119 110 109 106 103 95 88 87 88 82 76 73 73 76 76 81 66 54 38 28 21 10 355 344 342 345 351 333 331 338 335 333 331 324 318 312 307 303 296 287 287 283 286 291 302 307 313 314 307 321 320 314 313 314 312 308 306 306 307 299 296 290 297 309 302 292 290 295 302 302 300 301 302 302 301 301 301 297 294 291
140 135 126 117 111 113 113 108 103 102 94 86 85 84 80 74 79 84 78 78 69 64 55 42 28 17 3 341 332 342 347 342 335 328 326 324 323 319 311 310 309 309 305 297 292 287 285 288 290 286 298 303 304 310 321 318 301 299 306 313 315 317 319 313 308 304 300 290 277 284 288 293 296 295 299 303 303 301 301 300 299 299 298 295 293
136 135 133 125 122 113 113 108 107 102 97 91 88 90 89 92 91 85 85 78 65 52 49 34 28 8 348 338 347 348 344 329 323 315 321 315 315 315 311 311 306 305 301 301 301 303 301 298 297 305 302 304 307 298 303 310 307 305 314 316 306 312 311 307 301 305 305 302 302 295 287 291 296 292 294 298 294 294 295 294 292 292 291 290 290
123 125 127 126 121 111 101 102 101 92 90 92 99 102 97 90 89 84 80 71 62 50 41 32 17 7 351 352 352 341 331 327 329 332 330 334 334 327 316 315 313 312 313 311 312 308 302 297 300 300 302 303 303 314 318 324 325 316 313 310 299 297 300 301 297 292 292 308 311 303 297 296 297 293 296 291 291 294 289 286 289 288 288 287 289
126 125 120 115 114 118 116 106 98 93 90 89 95 98 98 102 92 91 79 70 63 57 46 27 3 359 351 350 339 333 332 332 335 336 341 340 337 333 327 329 325 321 315 311 307 306 303 305 308 312 311 307 308 315 311 308 309 304 304 311 305 307 302 294 289 294 302 305 304 307 299 295 296 293 290 282 285 292 291 289 288 289 285 287 290
130 129 123 117 116 117 117 116 105 98 94 91 87 82 82 87 92 83 77 65 63 52 45 35 352 338 335 340 335 327 327 335 337 339 342 337 333 330 328 325 324 320 319 315 309 307 303 296 301 305 301 301 302 307 307 306 302 302 304 304 303 308 308 312 312 308 301 338 318 308 304 297 301 294 294 287 292 291 292 289 286 286 288 292 294
133 126 118 119 119 120 113 107 103 103 97 87 84 81 81 88 91 84 78 71 62 52 43 18 345 333 321 327 326 323 328 336 335 322 320 326 328 325 325 324 320 316 309 306 310 310 308 306 302 296 299 297 301 304 306 310 311 308 308 305 304 307 306 308 303 303 306 326 311 305 297 297 305 292 291 293 297 296 293 293 293 293 293 294 295
132 125 127 121 119 117 114 112 108 101 91 86 88 87 89 88 81 77 72 69 57 46 21 0 331 318 313 321 325 328 323 332 322 305 290 289 303 312 315 315 310 306 306 305 303 299 300 296 296 295 296 299 297 298 303 304 306 302 307 307 308 310 309 300 301 300 301 317 307 298 295 297 312 301 297 300 302 300 296 296 293 292 294 296 297
129 124 121 117 118 115 117 116 111 102 90 87 90 90 90 86 78 75 67 58 54 43 16 320 308 309 313 331 331 332 322 320 310 298 295 298 300 300 296 296 290 290 294 295 297 298 295 287 285 288 293 293 291 296 301 305 311 310 309 305 310 308 307 302 300 298 297 312 304 302 294 297 310 301 295 300 301 295 293 290 292 294 296 296 296
140 137 135 125 119 119 121 119 113 101 87 86 88 88 90 86 78 74 61 60 63 46 332 294 282 296 306 318 318 322 330 335 317 323 319 313 311 309 302 294 291 289 288 290 288 285 283 280 278 279 288 292 292 301 309 314 307 304 305 302 304 302 293 291 285 287 293 300 299 304 297 296 306 296 292 296 298 295 293 288 288 291 293 296 298
105 110 102 111 123 123 124 120 112 98 81 82 87 88 90 89 84 74 86 81 134 144 275 204 311 302 295 299 303 335 340 323 315 326 328 328 320 311 305 299 295 295 290 300 305 307 305 301 298 299 306 309 310 310 310 311 311 308 303 301 298 294 300 299 297 305 294 311 318 300 289 289 300 289 293 295 296 295 293 289 285 289 293 298 302
131 125 127 119 124 122 117 115 109 100 83 77 90 91 92 98 89 90 115 134 146 148 116 72 272 308 300 309 336 345 325 303 310 330 332 334 320 313 310 310 310 308 309 304 303 309 313 313 314 313 311 312 312 312 312 313 313 315 313 309 309 314 308 309 305 306 303 310 310 291 290 293 301 299 298 298 296 297 293 290 288 289 294 302 304
136 136 131 117 109 108 111 107 105 106 94 76 93 94 98 105 109 115 141 151 170 152 106 40 18 341 326 358 349 323 312 298 326 335 334 335 322 318 319 323 326 326 317 319 317 312 317 317 314 312 310 309 310 309 308 311 317 324 321 311 312 307 304 304 306 303 294 296 300 304 299 297 305 303 302 299 298 286 288 290 296 297 300 303 298
126 129 127 118 112 96 95 100 96 96 98 76 92 101 102 109 114 131 138 149 126 79 54 29 357 347 342 344 340 331 325 327 334 334 335 337 332 335 337 332 326 322 322 329 331 332 333 329 321 320 310 309 302 297 297 311 320 320 304 300 304 304 306 309 304 305 299 301 311 317 302 304 308 305 307 308 301 300 279 286 294 294 293 294 298